Location: Croisilles
(50.1998°N, 2.8793°E)
Time: 20:01:50
(UTC+00:00)

Cosmos 2082 Rocket - Pass Details

Date: 21 January 2021
Orbit: 832 x 855 km, 71.0° (Epoch: 02 March)

Event Time Altitude Azimuth Distance (km) Brightness Sun altitude
Rises 17:32:48 0° 331° (NNW) 3,437 5.5 -10.9°
Reaches altitude 10° 17:36:22 10° 353° (N) 2,498 4.6 -11.4°
Maximum altitude 17:39:46 16° 30° (NNE) 2,110 3.9 -11.9°
Enters shadow 17:41:34 14° 51° (NE) 2,222 3.8 -12.2°
